Flag for Australia Weather past 2 weeks in Perth, Western Australia, Australia

Now
68 °F

Scattered clouds.


Feels Like: 68 °F
Forecast: 57 / 68 °F
Wind: 9 mph from Northwest

Location: Belmont Perth Airport

Current Time: Aug 28, 2015 at 4:36:33 PM

Latest Report: Aug 28, 2015 at 4:00 PM


Visibility: N/A

Pressure: 29.95 "Hg

Humidity: 69%

Dew point: 57 °F

Location of PerthLocation

Historic Weather in Perth — Graph

°F

Perth temperature yesterday

Maximum temperature yesterday: 77 °F (at 1:30 PM)
Minimum temperature yesterday: 54 °F (at 4:00 AM)
Average temperature yesterday: 64 °F

Past Weeks' High & Low Weather Summary

 TemperatureHumidityPressure
High81 °F (Aug 15, 1:30 PM)100% (Aug 13, 9:00 PM)30.45 "Hg (Aug 13, 9:00 PM)
Low41 °F (Aug 22, 4:00 AM)18% (Aug 15, 2:00 PM)29.77 "Hg (Aug 19, 3:00 PM)
Average59 °F70%30.10 "Hg
* Reported Aug 13 3:00 PM — Aug 28 3:00 PM, Perth, Weather by CustomWeather, © 2015

Note: Actual official high and low records may vary slightly from our data, if they occured in-between our weather recording intervals... More about our weather records

Advertising

Perth weather history for previous 24 hours

 ConditionsComfort  
Time TempWeatherWind HumidityBarometerVisibility
3:00 PM
Fri, Aug 28
70 °FScattered clouds.15 mph64%29.95 "HgN/A
2:30 PM70 °FScattered clouds.13 mph69%29.95 "HgN/A
2:00 PM70 °FScattered clouds.16 mph64%29.95 "HgN/A
1:30 PM70 °FScattered showers. Scattered clouds.16 mph64%29.95 "HgN/A
1:00 PM70 °FScattered showers. Scattered clouds.17 mph69%29.95 "HgN/A
12:30 PM68 °FScattered showers. Partly sunny.10 mph73%29.98 "HgN/A
12:00 PM64 °FThundershowers. Partly sunny.6 mph88%29.98 "HgN/A
11:00 AM66 °FSprinkles. Scattered clouds.9 mph73%29.98 "HgN/A
10:30 AM68 °FScattered showers. Scattered clouds.8 mph69%30.01 "HgN/A
10:00 AM68 °FScattered showers. Scattered clouds.9 mph69%30.01 "HgN/A
9:30 AM64 °FScattered showers. Passing clouds.10 mph78%30.01 "HgN/A
9:00 AM64 °FScattered clouds.10 mph78%30.01 "HgN/A
8:30 AM63 °FScattered clouds.9 mph83%30.01 "HgN/A
8:00 AM59 °FPassing clouds.9 mph88%30.01 "HgN/A
7:30 AM57 °FPassing clouds.8 mph94%29.98 "HgN/A
7:00 AM55 °FPassing clouds.7 mph94%29.98 "HgN/A
6:00 AM55 °FPassing clouds.7 mph94%29.98 "HgN/A
5:00 AM55 °FPassing clouds.8 mph94%29.98 "HgN/A
4:30 AM55 °FPassing clouds.8 mph94%29.98 "HgN/A
4:00 AM55 °FPassing clouds.8 mph94%29.95 "HgN/A
3:30 AM55 °FPassing clouds.8 mph94%29.95 "HgN/A
3:00 AM55 °FPassing clouds.8 mph94%29.98 "HgN/A
2:30 AM55 °FPassing clouds.8 mph94%29.98 "HgN/A
2:00 AM57 °FPassing clouds.9 mph88%29.98 "HgN/A
1:30 AM57 °FPassing clouds.10 mph94%29.98 "HgN/A
1:00 AM59 °FPassing clouds.10 mph88%29.95 "HgN/A
12:30 AM59 °FPassing clouds.9 mph88%29.98 "HgN/A
12:00 AM59 °FPassing clouds.9 mph88%29.95 "HgN/A
11:00 PM
Thu, Aug 27
61 °FPassing clouds.8 mph83%29.95 "HgN/A
10:30 PM61 °FPassing clouds.9 mph72%29.98 "HgN/A
10:00 PM59 °FPassing clouds.8 mph68%29.98 "HgN/A
9:00 PM59 °FClear.7 mph63%29.98 "Hg10 mi
8:00 PM59 °FClear.6 mph63%29.95 "Hg10 mi
7:30 PM63 °FClear.6 mph56%29.95 "Hg10 mi
7:00 PM66 °FClear.7 mph49%29.95 "Hg10 mi
6:30 PM66 °FClear.7 mph46%29.92 "Hg10 mi
6:00 PM70 °FClear.8 mph40%29.92 "Hg10 mi
5:30 PM73 °FClear.10 mph33%29.92 "Hg10 mi
5:00 PM75 °FClear.10 mph29%29.92 "Hg10 mi
4:30 PM75 °FSunny.12 mph29%29.92 "Hg10 mi
4:00 PM75 °FSunny.13 mph31%29.92 "Hg10 mi
Weather by CustomWeather, © 2015

See weather overviewHow to use our weather pages